• In Hungary
  • List of Countries
  • For 7 days
  • Water Temperature
  • Satellite Maps
  • Weather Map
  • News
  • Weather Widgets
  • user-avatar
    Login

    Hourly Weather Yugovo

    Today, 24 February, Saturday

    Time Temperature Precipitation Wind Pressure Humidity
    00:00 -16°C° 0 mm 1 mps 659 mmHg 87%
    01:00 -16°C° 0 mm 1 mps 659 mmHg 86%
    02:00 -16°C° 0 mm 1 mps 659 mmHg 86%
    03:00 -16°C° 0 mm 1 mps 659 mmHg 85%
    04:00 -16°C° 0 mm 1 mps 659 mmHg 85%
    05:00 -16°C° 0 mm 1 mps 659 mmHg 84%
    06:00 -19°C° 0 mm 2 mps 658 mmHg 83%
    07:00 -17°C° 0 mm 1 mps 658 mmHg 82%
    08:00 -15°C° 0 mm 1 mps 658 mmHg 81%
    09:00 -12°C° 0 mm 1 mps 659 mmHg 79%
    10:00 -10°C° 0 mm 1 mps 660 mmHg 77%
    11:00 -9°C° 0 mm 1 mps 659 mmHg 75%
    12:00 -7°C° 0 mm 1 mps 659 mmHg 73%
    13:00 -6°C° 0 mm 1 mps 659 mmHg 70%
    14:00 -6°C° 0 mm 1 mps 659 mmHg 73%
    15:00 -7°C° 0 mm 1 mps 658 mmHg 76%
    16:00 -7°C° 0 mm 1 mps 658 mmHg 79%
    17:00 -9°C° 0 mm 1 mps 658 mmHg 82%
    18:00 -11°C° 0 mm 1 mps 657 mmHg 85%
    19:00 -13°C° 0 mm 1 mps 657 mmHg 88%
    20:00 -13°C° 0 mm 1 mps 657 mmHg 87%
    21:00 -13°C° 0 mm 1 mps 657 mmHg 87%
    22:00 -16°C° 0 mm 2 mps 656 mmHg 86%
    23:00 -14°C° 0 mm 1 mps 656 mmHg 85%

    Tomorrow, 25 February, Sunday

    Time Temperature Precipitation Wind Pressure Humidity
    00:00 -14°C° 0 mm 1 mps 656 mmHg 85%
    01:00 -14°C° 0 mm 1 mps 656 mmHg 84%
    02:00 -14°C° 0 mm 1 mps 656 mmHg 84%
    03:00 -15°C° 0 mm 1 mps 655 mmHg 84%
    04:00 -15°C° 0 mm 1 mps 655 mmHg 83%
    05:00 -15°C° 0 mm 1 mps 655 mmHg 83%
    06:00 -15°C° 0 mm 1 mps 655 mmHg 83%
    07:00 -15°C° 0 mm 1 mps 655 mmHg 83%
    08:00 -13°C° 0 mm 1 mps 656 mmHg 82%
    09:00 -11°C° 0 mm 0 mps 656 mmHg 82%
    10:00 -9°C° 0 mm 0 mps 657 mmHg 81%
    11:00 -9°C° 0 mm 0 mps 656 mmHg 83%
    12:00 -8°C° 0 mm 1 mps 656 mmHg 84%
    13:00 -8°C° 0 mm 1 mps 656 mmHg 86%
    14:00 -9°C° 0.3 mm 2 mps 656 mmHg 89%
    15:00 -10°C° 0.3 mm 2 mps 657 mmHg 92%
    16:00 -13°C° 0.3 mm 3 mps 657 mmHg 95%
    17:00 -14°C° 0.3 mm 3 mps 657 mmHg 95%
    18:00 -14°C° 0.3 mm 3 mps 658 mmHg 96%
    19:00 -15°C° 0.3 mm 3 mps 659 mmHg 96%
    20:00 -16°C° 0.2 mm 3 mps 659 mmHg 96%
    21:00 -16°C° 0.2 mm 3 mps 660 mmHg 95%
    22:00 -17°C° 0.2 mm 3 mps 661 mmHg 95%
    23:00 -16°C° 0.1 mm 2 mps 661 mmHg 96%

    Day after tomorrow, 26 February, Monday

    Time Temperature Precipitation Wind Pressure Humidity
    00:00 -17°C° 0.1 mm 2 mps 661 mmHg 96%
    01:00 -16°C° 0.1 mm 1 mps 661 mmHg 97%
    02:00 -17°C° 0.1 mm 1 mps 661 mmHg 97%
    03:00 -17°C° 0.1 mm 1 mps 662 mmHg 97%
    04:00 -18°C° 0.1 mm 0 mps 662 mmHg 97%
    05:00 -19°C° 0 mm 0 mps 661 mmHg 97%
    06:00 -19°C° 0 mm 0 mps 661 mmHg 96%
    07:00 -20°C° 0 mm 0 mps 661 mmHg 96%
    08:00 -18°C° 0 mm 0 mps 662 mmHg 94%
    09:00 -16°C° 0 mm 0 mps 662 mmHg 91%
    10:00 -14°C° 0 mm 0 mps 662 mmHg 89%
    11:00 -13°C° 0 mm 1 mps 662 mmHg 88%
    12:00 -13°C° 0 mm 1 mps 661 mmHg 87%
    13:00 -12°C° 0 mm 1 mps 661 mmHg 86%
    14:00 -12°C° 0.1 mm 1 mps 661 mmHg 88%
    15:00 -13°C° 0.1 mm 1 mps 660 mmHg 89%
    16:00 -13°C° 0.1 mm 1 mps 660 mmHg 91%
    17:00 -14°C° 0.1 mm 1 mps 660 mmHg 93%
    18:00 -15°C° 0.1 mm 1 mps 660 mmHg 95%
    19:00 -17°C° 0.1 mm 1 mps 660 mmHg 97%
    20:00 -17°C° 0.1 mm 1 mps 660 mmHg 97%
    21:00 -18°C° 0.1 mm 1 mps 660 mmHg 98%
    22:00 -18°C° 0.1 mm 1 mps 660 mmHg 98%
    23:00 -18°C° 0.1 mm 1 mps 660 mmHg 98%

    27 February, Tuesday

    Time Temperature Precipitation Wind Pressure Humidity
    00:00 -19°C° 0.1 mm 1 mps 659 mmHg 98%
    01:00 -19°C° 0.1 mm 1 mps 659 mmHg 97%
    02:00 -20°C° 0.1 mm 1 mps 659 mmHg 97%
    03:00 -20°C° 0.1 mm 1 mps 659 mmHg 97%
    04:00 -21°C° 0.1 mm 1 mps 658 mmHg 96%
    05:00 -21°C° 0 mm 1 mps 658 mmHg 96%
    06:00 -22°C° 0 mm 1 mps 658 mmHg 96%
    07:00 -23°C° 0 mm 1 mps 658 mmHg 95%
    08:00 -21°C° 0 mm 1 mps 658 mmHg 93%
    09:00 -19°C° 0 mm 1 mps 658 mmHg 91%
    10:00 -17°C° 0 mm 1 mps 658 mmHg 89%
    11:00 -16°C° 0 mm 1 mps 658 mmHg 89%
    12:00 -15°C° 0 mm 1 mps 657 mmHg 89%
    13:00 -17°C° 0 mm 2 mps 657 mmHg 89%
    14:00 -17°C° 0.1 mm 2 mps 656 mmHg 90%
    15:00 -17°C° 0.1 mm 2 mps 656 mmHg 91%
    16:00 -17°C° 0.1 mm 2 mps 656 mmHg 92%
    17:00 -19°C° 0.1 mm 2 mps 656 mmHg 94%
    18:00 -18°C° 0.1 mm 1 mps 656 mmHg 96%
    19:00 -19°C° 0.1 mm 1 mps 656 mmHg 97%
    20:00 -20°C° 0.1 mm 1 mps 656 mmHg 98%
    21:00 -20°C° 0.1 mm 1 mps 656 mmHg 98%
    22:00 -21°C° 0.1 mm 1 mps 656 mmHg 98%
    23:00 -22°C° 0 mm 1 mps 656 mmHg 98%

    28 February, Wednesday

    Time Temperature Precipitation Wind Pressure Humidity
    00:00 -22°C° 0 mm 1 mps 656 mmHg 98%
    01:00 -23°C° 0 mm 1 mps 656 mmHg 98%
    02:00 -23°C° 0 mm 1 mps 656 mmHg 98%
    03:00 -23°C° 0 mm 1 mps 656 mmHg 98%
    04:00 -24°C° 0 mm 1 mps 656 mmHg 97%
    05:00 -24°C° 0 mm 1 mps 656 mmHg 97%
    06:00 -24°C° 0 mm 1 mps 656 mmHg 97%
    07:00 -24°C° 0 mm 1 mps 657 mmHg 97%
    08:00 -23°C° 0 mm 1 mps 657 mmHg 94%
    09:00 -21°C° 0 mm 1 mps 658 mmHg 92%
    10:00 -19°C° 0 mm 1 mps 658 mmHg 89%
    11:00 -18°C° 0 mm 1 mps 658 mmHg 88%
    12:00 -17°C° 0 mm 1 mps 657 mmHg 86%
    13:00 -16°C° 0 mm 1 mps 657 mmHg 84%
    14:00 -16°C° 0.1 mm 1 mps 656 mmHg 86%
    15:00 -16°C° 0.1 mm 1 mps 656 mmHg 88%
    16:00 -17°C° 0.1 mm 1 mps 655 mmHg 90%
    17:00 -19°C° 0 mm 1 mps 655 mmHg 93%
    18:00 -20°C° 0 mm 1 mps 654 mmHg 95%
    19:00 -22°C° 0 mm 0 mps 654 mmHg 98%
    20:00 -23°C° 0 mm 0 mps 654 mmHg 98%
    21:00 -23°C° 0 mm 1 mps 654 mmHg 97%
    22:00 -23°C° 0 mm 1 mps 654 mmHg 97%
    23:00 -23°C° 0 mm 1 mps 653 mmHg 96%

    1 March, Thursday

    Time Temperature Precipitation Wind Pressure Humidity
    00:00 -24°C° 0 mm 1 mps 653 mmHg 95%
    01:00 -24°C° 0 mm 1 mps 652 mmHg 94%
    02:00 -24°C° 0 mm 1 mps 652 mmHg 93%
    03:00 -25°C° 0 mm 1 mps 652 mmHg 91%
    04:00 -25°C° 0 mm 1 mps 652 mmHg 90%
    05:00 -25°C° 0 mm 1 mps 652 mmHg 91%
    06:00 -25°C° 0 mm 1 mps 652 mmHg 92%
    07:00 -25°C° 0 mm 1 mps 653 mmHg 93%
    08:00 -27°C° 0.1 mm 2 mps 653 mmHg 94%
    09:00 -25°C° 0.1 mm 2 mps 654 mmHg 94%
    10:00 -24°C° 0.1 mm 2 mps 655 mmHg 95%
    11:00 -25°C° 0.1 mm 3 mps 655 mmHg 94%
    12:00 -24°C° 0.1 mm 3 mps 655 mmHg 93%
    13:00 -24°C° 0.1 mm 3 mps 655 mmHg 92%
    14:00 -24°C° 0.1 mm 3 mps 656 mmHg 92%
    15:00 -24°C° 0.1 mm 3 mps 656 mmHg 91%
    16:00 -25°C° 0.1 mm 3 mps 657 mmHg 91%
    17:00 -26°C° 0 mm 3 mps 657 mmHg 93%
    18:00 -26°C° 0 mm 2 mps 658 mmHg 95%
    19:00 -27°C° 0 mm 2 mps 658 mmHg 97%
    20:00 -25°C° 0 mm 1 mps 658 mmHg 97%
    21:00 -28°C° 0 mm 1 mps 658 mmHg 98%
    22:00 -29°C° 0 mm 1 mps 658 mmHg 98%
    23:00 -29°C° 0 mm 1 mps 658 mmHg 97%
    Show more